User: anonymous   Login
Location: Unspecified
(0.0000°N, 0.0000°E)
Time: 11:26:12
(UTC+02:00)
Language:

Palapa 6 Rocket - Orbit

View from above orbital plane
View from above orbital plane
View from above satellite
View from above satellite

Ground track
Ground track

The orbit data is extracted from the following two-line orbital elements,

1 20571U 90034B   15107.76633892  .00001593  00000-0  19601-3 0  9997
2 20571 022.7459 225.2617 0513249 010.7663 148.0038 14.10772546280098
Epoch (UTC): 17 April 2015 18:23:31
Eccentricity: 0.0513249
inclination: 22.7459°
perigee height: 485 km
apogee height: 1228 km
right ascension of ascending node: 225.2617°
argument of perigee: 10.7663°
revolutions per day: 14.10772546
mean anomaly at epoch: 148.0038°
orbit number at epoch: 28009

The dashed part of the orbit path shows where the satellite is in the earth's shadow,  

DLR